Regional Weather Roundup
Issued by NWS

Home | Current Version | Previous Version | Graphics & Text | Print | Product List | Glossary On
Versions: 1 2 3 4 5 6 7 8 9 10 11 12 13 14 15 16 17 18 19 20 21 22 23 24 25 26 27 28 29 30 31 32 33 34 35 36 37 38 39 40 41 42 43 44 45 46 47 48 49 50
000
ASUS45 KBOU 301210
RWRCO

WEATHER ROUNDUP FOR COLORADO
NATIONAL WEATHER SERVICE DENVER/BOULDER CO
600 AM MDT TUE JUN 30 2015

NOTE: "FAIR" INDICATES FEW OR NO CLOUDS BELOW 12000 FEET WITH NO
SIGNIFICANT WEATHER AND/OR OBSTRUCTIONS TO VISIBILITY.

COZ001>005-013-030-031-301300-
...NORTHWEST COLORADO...

CITY           SKY/WX    TMP DP  RH WIND       PRES   REMARKS
CRAIG          PTCLDY    51  44  77 CALM      30.26R
HAYDEN         CLEAR     57  43  58 E15       30.28R
MEEKER         PTCLDY    52  43  71 NE6       30.27S
MOUNT WERNER   NOT AVBL
STEAMBOAT SPGS CLEAR     51  45  79 CALM      30.32R
WALDEN         CLEAR     43  37  81 SE6       30.41S
$$

COZ006>008-011-301300-
...WEST CENTRAL VALLEYS...

CITY           SKY/WX    TMP DP  RH WIND       PRES   REMARKS
GRAND JUNCTION CLEAR     72  43  35 E16       30.11R
MONTROSE       CLEAR     61  46  57 S5        30.22S
EAGLE          PTCLDY    54  45  71 CALM      30.34S
RIFLE          PTCLDY    58  44  60 E5        30.21R
DELTA          CLEAR     65  46  50 NE7       30.18R
NUCLA          CLEAR     64  43  45 SE9       30.25S
$$

COZ017>023-064>068-301300-
...SOUTHWEST COLORADO...

CITY           SKY/WX    TMP DP  RH WIND       PRES   REMARKS
DURANGO        CLEAR     54  49  83 CALM      30.32S
CORTEZ         CLEAR     59  47  64 E6        30.23S
PAGOSA SPRINGS CLEAR     52  46  78 CALM      30.41S
TELLURIDE      CLEAR     62  40  44 CALM      30.50R
WOLF CREEK PAS NOT AVBL
$$

COZ009-010-012-014-032>034-037-058>063-301300-
...CENTRAL COLORADO...

CITY           SKY/WX    TMP DP  RH WIND       PRES   REMARKS
ASPEN          PTCLDY    52  42  69 S6        30.38S
BUENA VISTA    PTCLDY    51  45  79 NW6       30.42F
COPPER MTN     PTCLDY    54  37  54 W8G16     30.71S
BERTHOUD PASS  FAIR      43  34  70 NW18G24   30.74S
COTTONWOOD PAS NOT AVBL
GUNNISON       CLEAR     48  43  81 CALM      30.44S
KREMMLING      PTCLDY    46  39  76 CALM      30.41S
LEADVILLE      PTCLDY    40  39  97 NE5       30.55S
MONARCH PASS   CLEAR     46  39  76 SW15      30.80S
SALIDA         PTCLDY    54  49  82 NW3       30.47S
SUNLIGHT       PTCLDY    59  39  47 CALM      30.64R
WILKERSON PASS PTCLDY    48  43  81 W7        30.67S
$$

COZ069>075-301300-
...SAN LUIS VALLEY/SANGRE DE CRISTO MOUNTAINS...

CITY           SKY/WX    TMP DP  RH WIND       PRES   REMARKS
ALAMOSA        CLEAR     51  45  79 CALM      30.38F
LA VETA PASS   CLEAR     50  41  71 MISG      30.55F
SAGUACHE       CLEAR     50  45  81 N9        30.42F
$$

COZ035-036-038>040-301300-
...NORTHERN COLORADO FRONT RANGE...

CITY           SKY/WX    TMP DP  RH WIND       PRES   REMARKS
DENVER INTL AP MOCLDY    64  50  60 SW9       30.17S
DMNS CITY PARK   N/A     64  49  58 S6        30.18S
AURORA         MOCLDY    61  52  72 S7        30.20S
FRONT RANGE AP PTCLDY    63  54  72 MISG      30.18F
ERIE MUNI ARPT PTCLDY    55  51  86 CALM      30.16S
BOULDER MUN AP PTCLDY    63  50  63 CALM      30.16F
CENTENNIAL     PTCLDY    59  51  75 S9        30.21F
BROOMFIELD     PTCLDY    64  46  52 CALM      30.20R
FORT COLLINS   PTCLDY    57  52  82 N5        30.17R
LONGMONT       PTCLDY    58  52  81 CALM      30.17S
$$

COZ041-046-047-076>085-087-088-301300-
...PIKES PEAK/PALMER DIVIDE AND SOUTHERN FOOTHILLS...

CITY           SKY/WX    TMP DP  RH WIND       PRES   REMARKS
COLO. SPRINGS  PTCLDY    58  51  78 NE7       30.26S
A. F. ACADEMY  CLEAR     53  49  84 N8        30.28S
ELLICOTT       CLEAR    N/A N/A N/A CALM      30.25
FALCON         CLEAR     56  48  76 W5        30.32R
FORT CARSON    CLEAR     58  50  75 N10       30.23S
LIMON          CLEAR     53  52  96 N5        30.20S
MONUMENT HILL  PTCLDY    57  46  67 MISG      30.31S
TRINIDAD       CLEAR     59  49  69 W13       30.24R
$$

COZ042>045-048>051-090-091-301300-
...NORTHEAST COLORADO...

CITY           SKY/WX    TMP DP  RH WIND       PRES   REMARKS
GREELEY ARPT   PTCLDY    57  54  88 NW3       30.14S
AKRON          PTCLDY    65  53  65 SW13      30.13R
BURLINGTON     CLEAR     60  52  74 W9        30.11F
WRAY           PTCLDY    59  56  91 W3        30.07R
STERLING       PTCLDY    59  55  88 S3        30.08S
HOLYOKE        PTCLDY    61  55  82 W3        30.06S
FORT MORGAN    PTCLDY    56  54  92 W5        30.12S
$$

COZ086-089-092>099-301300-
...SOUTHEAST COLORADO...

CITY           SKY/WX    TMP DP  RH WIND       PRES   REMARKS
PUEBLO         CLEAR     61  52  72 CALM      30.16S
LA JUNTA       CLEAR     60  55  83 W9        30.13S
LAMAR          CLEAR     57  54  89 CALM      30.10R
SPRINGFIELD      N/A     59  52  77 SW9       30.16R
$$


USA.gov is the U.S. government's official web portal to all federal, state and local government web resources and services.